Total_Precipitation_Accumulation
0.09 0.10 0.06 0.09 0.06 0.02 0.00 0.00 0.00 0.02 0.03 0.02 0.00 0.03 0.03 0.02 0.00 0.08 0.02 0.00 0.01 0.02 0.10 0.16 0.40 0.36 0.31 0.23 0.19 0.18 0.23 0.33 0.31 0.49 0.49 0.30 0.25 0.09 0.03 0.03 0.05 0.12 0.32 0.46 0.57 0.46 0.09 0.02 0.02
0.11 0.22 0.22 0.22 0.07 0.01 0.00 0.00 0.00 0.04 0.05 0.03 0.03 0.07 0.15 0.12 0.02 0.04 0.05 0.03 0.02 0.03 0.11 0.18 0.41 0.47 0.39 0.22 0.14 0.19 0.22 0.25 0.28 0.32 0.34 0.38 0.31 0.09 0.07 0.07 0.07 0.15 0.35 0.45 0.48 0.34 0.07 0.06 0.01
0.24 0.51 0.40 0.20 0.03 0.00 0.00 0.00 0.00 0.00 0.00 0.02 0.05 0.11 0.40 0.26 0.13 0.04 0.05 0.05 0.03 0.04 0.13 0.22 0.44 0.53 0.47 0.38 0.23 0.17 0.23 0.24 0.29 0.37 0.42 0.45 0.37 0.19 0.15 0.07 0.05 0.15 0.17 0.16 0.26 0.38 0.20 0.10 0.03
0.47 0.73 0.48 0.14 0.03 0.00 0.00 0.00 0.00 0.01 0.07 0.14 0.14 0.14 0.44 0.48 0.18 0.12 0.08 0.06 0.07 0.07 0.15 0.29 0.57 0.54 0.45 0.48 0.32 0.26 0.21 0.23 0.27 0.34 0.52 0.57 0.40 0.31 0.22 0.14 0.13 0.07 0.07 0.09 0.12 0.15 0.08 0.02 0.01
0.71 0.51 0.29 0.21 0.03 0.00 0.00 0.00 0.00 0.01 0.03 0.06 0.10 0.25 0.57 0.51 0.28 0.32 0.28 0.16 0.23 0.17 0.25 0.46 0.85 0.67 0.35 0.43 0.46 0.38 0.39 0.41 0.32 0.40 0.59 0.59 0.39 0.44 0.32 0.25 0.15 0.08 0.05 0.07 0.07 0.10 0.07 0.03 0.01
0.79 0.46 0.36 0.31 0.07 0.00 0.00 0.00 0.00 0.00 0.01 0.04 0.17 0.25 0.56 0.82 0.73 0.64 0.66 0.51 0.66 0.64 0.70 0.70 0.91 0.89 0.62 0.48 0.39 0.34 0.33 0.47 0.42 0.48 0.74 0.65 0.52 0.49 0.45 0.31 0.17 0.13 0.09 0.10 0.10 0.13 0.14 0.08 0.04
0.63 0.53 0.33 0.10 0.04 0.01 0.00 0.00 0.00 0.00 0.00 0.01 0.04 0.07 0.39 1.13 1.12 1.10 1.07 0.93 0.89 1.18 0.99 0.69 0.57 0.52 0.46 0.33 0.18 0.14 0.15 0.25 0.40 0.50 0.61 0.49 0.48 0.40 0.41 0.40 0.27 0.32 0.27 0.24 0.21 0.14 0.15 0.14 0.14
0.46 0.60 0.32 0.05 0.03 0.01 0.00 0.00 0.00 0.00 0.00 0.00 0.02 0.15 0.24 0.69 1.13 1.55 1.67 1.55 1.28 1.41 1.65 1.37 1.09 0.67 0.43 0.36 0.19 0.13 0.16 0.19 0.39 0.25 0.24 0.19 0.17 0.13 0.20 0.16 0.17 0.25 0.34 0.24 0.15 0.13 0.14 0.13 0.13
0.74 1.05 0.49 0.07 0.03 0.02 0.00 0.01 0.01 0.01 0.00 0.00 0.00 0.06 0.09 0.13 0.74 1.87 2.61 2.66 1.54 1.29 1.49 1.96 1.61 1.00 0.76 0.67 0.36 0.21 0.13 0.09 0.24 0.25 0.14 0.13 0.07 0.05 0.03 0.02 0.04 0.08 0.15 0.18 0.15 0.15 0.16 0.14 0.05
1.24 1.35 0.33 0.04 0.02 0.03 0.01 0.01 0.01 0.03 0.01 0.08 0.08 0.05 0.05 0.27 0.59 1.56 2.86 3.02 2.18 1.31 1.09 1.46 1.75 1.07 0.73 0.72 0.53 0.32 0.20 0.12 0.10 0.24 0.18 0.11 0.09 0.04 0.04 0.02 0.02 0.03 0.03 0.06 0.11 0.14 0.12 0.06 0.01
1.22 0.82 0.14 0.09 0.14 0.16 0.04 0.03 0.01 0.08 0.11 0.02 0.08 0.09 0.15 0.37 0.50 0.78 1.77 2.94 2.84 2.23 1.34 0.91 1.23 1.22 0.61 0.80 0.55 0.29 0.14 0.11 0.08 0.19 0.31 0.21 0.14 0.14 0.08 0.03 0.04 0.03 0.01 0.02 0.03 0.09 0.06 0.06 0.06
0.93 0.41 0.23 0.19 0.30 0.19 0.07 0.05 0.02 0.04 0.02 0.00 0.10 0.14 0.17 0.32 0.43 0.66 0.82 1.89 2.01 2.33 2.12 1.41 0.90 1.06 0.71 0.75 0.70 0.26 0.11 0.08 0.07 0.09 0.35 0.31 0.19 0.19 0.18 0.04 0.07 0.13 0.08 0.04 0.06 0.04 0.07 0.15 0.18
0.72 0.52 0.42 0.47 0.38 0.29 0.23 0.15 0.04 0.01 0.02 0.03 0.13 0.14 0.19 0.34 0.32 0.55 0.56 0.64 1.11 1.60 2.53 2.32 1.58 1.02 0.84 0.56 0.84 0.39 0.14 0.08 0.04 0.05 0.09 0.41 0.30 0.24 0.21 0.26 0.14 0.13 0.18 0.16 0.21 0.19 0.20 0.18 0.21
0.66 0.73 0.55 0.72 0.55 0.43 0.29 0.17 0.21 0.03 0.06 0.15 0.26 0.30 0.32 0.32 0.36 0.50 0.34 0.37 0.75 0.94 1.22 2.05 2.04 1.89 1.35 0.91 1.11 0.83 0.30 0.15 0.07 0.05 0.03 0.07 0.37 0.33 0.40 0.26 0.19 0.14 0.10 0.18 0.37 0.40 0.41 0.37 0.32
0.71 0.82 1.01 0.92 0.74 0.66 0.44 0.37 0.31 0.06 0.10 0.18 0.28 0.28 0.42 0.38 0.37 0.26 0.48 0.56 0.45 0.58 0.76 0.91 1.29 2.07 2.01 1.27 1.18 1.46 0.89 0.39 0.14 0.05 0.05 0.02 0.09 0.37 0.34 0.67 0.45 0.14 0.13 0.17 0.23 0.29 0.35 0.34 0.43
0.76 1.36 1.33 0.96 1.25 1.00 0.65 0.30 0.09 0.11 0.13 0.11 0.20 0.38 0.56 0.60 0.54 0.47 0.33 0.29 0.51 0.49 0.40 0.47 0.59 1.07 1.50 1.20 1.19 1.31 1.32 0.96 0.42 0.15 0.09 0.08 0.04 0.09 0.28 0.30 0.60 0.57 0.38 0.30 0.24 0.26 0.32 0.29 0.34
0.76 1.14 1.00 0.90 1.01 1.40 0.77 0.24 0.10 0.12 0.17 0.09 0.11 0.31 0.46 0.63 0.53 0.39 0.42 0.54 0.31 0.32 0.37 0.44 0.57 0.60 0.69 0.85 0.84 0.99 1.18 1.31 0.84 0.53 0.24 0.14 0.14 0.12 0.13 0.18 0.26 0.43 0.46 0.40 0.38 0.34 0.29 0.27 0.28
0.45 0.58 0.69 0.70 0.67 1.02 1.10 0.36 0.19 0.15 0.18 0.08 0.04 0.11 0.37 0.57 0.91 0.56 0.44 0.62 0.57 0.39 0.42 0.46 0.31 0.38 0.43 0.93 1.09 1.12 1.08 1.15 1.10 0.65 0.41 0.38 0.39 0.45 0.34 0.28 0.39 0.33 0.30 0.31 0.27 0.26 0.31 0.26 0.19
0.35 0.29 0.60 0.54 0.54 0.62 0.93 0.67 0.24 0.16 0.20 0.18 0.07 0.05 0.21 0.49 1.00 1.21 0.85 0.73 0.83 0.72 0.74 0.52 0.42 0.36 0.40 0.58 0.55 0.74 0.91 1.22 1.39 1.14 0.98 0.97 0.90 0.81 0.73 0.54 0.43 0.35 0.25 0.22 0.22 0.25 0.33 0.40 0.46
0.23 0.21 0.63 0.83 0.70 0.70 0.63 0.86 0.43 0.17 0.16 0.15 0.17 0.13 0.21 0.45 0.88 1.26 1.66 0.85 0.79 1.39 1.59 1.18 0.84 0.79 0.55 0.66 0.65 0.57 0.83 1.05 1.27 1.46 1.27 1.34 1.30 1.13 0.85 0.71 0.69 0.58 0.54 0.45 0.50 0.49 0.48 0.46 0.60
0.15 0.09 0.39 1.22 0.92 0.60 0.49 0.58 0.69 0.27 0.15 0.12 0.18 0.22 0.35 0.55 0.58 1.01 1.79 1.34 1.19 1.62 1.68 1.43 1.33 1.16 1.25 1.15 1.45 1.28 1.32 1.26 1.60 1.82 1.62 1.55 1.48 1.43 1.56 1.86 1.55 1.01 1.02 1.15 1.22 1.28 1.27 1.06 0.82
0.24 0.09 0.39 0.79 0.59 0.50 0.32 0.45 0.41 0.31 0.21 0.15 0.25 0.28 0.31 0.42 0.37 0.57 0.90 1.25 1.40 0.91 0.84 1.33 2.38 2.65 1.70 1.71 2.50 2.94 2.86 2.76 2.54 2.86 2.50 1.92 1.69 1.69 1.86 2.15 2.74 3.21 2.75 1.93 1.63 1.54 1.38 1.43 1.29
0.42 0.11 0.31 0.37 0.27 0.31 0.22 0.53 0.21 0.23 0.22 0.28 0.28 0.17 0.16 0.17 0.33 0.34 0.53 0.73 0.60 0.49 0.54 0.72 1.26 2.07 2.13 2.05 2.51 2.92 2.59 2.11 1.95 2.06 2.69 2.69 2.44 2.02 1.86 1.89 1.96 1.98 2.17 2.63 2.40 1.95 1.84 1.71 1.41
0.17 0.13 0.44 0.38 0.48 0.51 0.21 0.27 0.19 0.20 0.20 0.39 0.32 0.15 0.27 0.23 0.16 0.31 0.26 0.34 0.38 0.42 0.51 0.50 0.69 1.08 1.90 2.06 2.07 2.41 2.64 2.81 2.41 1.99 2.27 2.19 1.82 1.80 1.70 1.52 1.38 1.41 1.46 1.56 1.92 1.95 1.68 1.57 1.61
0.23 0.58 1.20 1.11 1.15 0.65 0.22 0.08 0.11 0.11 0.10 0.25 0.38 0.25 0.36 0.49 0.30 0.36 0.58 0.54 0.58 0.58 0.38 0.40 0.52 0.59 0.94 1.35 1.70 1.85 1.56 1.82 1.91 1.80 1.79 1.96 1.93 1.72 1.65 1.53 1.53 1.41 1.42 1.46 1.55 1.71 1.64 1.46 1.31
0.35 0.58 0.88 0.73 0.35 0.42 0.17 0.22 0.18 0.20 0.19 0.18 0.34 0.46 0.72 0.98 0.55 0.51 0.80 0.98 0.99 0.70 0.62 0.39 0.49 0.33 0.26 0.34 0.63 1.04 1.34 1.71 1.71 1.58 1.52 1.47 1.41 1.55 1.87 1.77 1.74 1.78 1.73 1.71 1.72 1.76 1.81 1.71 1.62
0.33 0.45 0.33 0.47 0.21 0.35 0.35 0.30 0.37 0.38 0.39 0.27 0.36 0.69 0.95 1.05 0.91 0.79 0.84 1.13 1.00 0.74 0.71 0.67 0.52 0.48 0.20 0.12 0.19 0.23 0.32 0.44 0.65 0.78 0.82 0.97 1.23 1.18 1.31 1.42 1.33 1.32 1.32 1.29 1.37 1.38 1.37 1.49 1.53
0.07 0.13 0.26 0.53 0.41 0.28 0.25 0.24 0.60 0.64 0.59 0.58 0.65 0.87 0.98 0.91 1.10 0.94 0.85 0.78 0.62 0.54 0.43 0.43 0.32 0.13 0.09 0.09 0.11 0.04 0.07 0.10 0.14 0.17 0.18 0.23 0.40 0.55 0.68 0.79 0.81 0.88 0.93 1.07 1.17 1.21 1.29 1.39 1.40
0.04 0.14 0.15 0.23 0.22 0.22 0.08 0.14 0.38 0.49 0.43 0.47 0.54 0.68 0.76 0.85 0.82 0.69 0.56 0.34 0.17 0.11 0.02 0.02 0.02 0.04 0.06 0.05 0.03 0.02 0.04 0.06 0.07 0.07 0.05 0.05 0.07 0.08 0.10 0.12 0.15 0.17 0.24 0.42 0.63 0.79 0.97 1.17 1.32
0.02 0.01 0.04 0.23 0.09 0.13 0.07 0.07 0.05 0.11 0.14 0.20 0.26 0.29 0.30 0.39 0.36 0.28 0.14 0.04 0.01 0.00 0.00 0.00 0.05 0.07 0.03 0.02 0.02 0.02 0.03 0.04 0.05 0.05 0.07 0.07 0.07 0.05 0.05 0.06 0.06 0.06 0.10 0.13 0.15 0.17 0.22 0.30 0.40